When you browse on this site, cookies collect data to enhance your experience and personalize the content and advertising you see.
Visit our Privacy Policy to learn more. By continuing to use the site, you agree to this use of cookies and data.
EN

Hourly Weather Kitzbuhel

Today, 6 July, Monday

Time Temperature Precipitation Wind Pressure Humidity
00:00 +16°C° 0 mm 1 mps 678 mmHg 93%
01:00 +15°C° 0 mm 1 mps 678 mmHg 93%
02:00 +14°C° 0 mm 0 mps 678 mmHg 93%
03:00 +15°C° 0 mm 0 mps 678 mmHg 93%
04:00 +15°C° 0 mm 0 mps 677 mmHg 93%
05:00 +16°C° 0.1 mm 0 mps 677 mmHg 92%
06:00 +16°C° 0.1 mm 0 mps 677 mmHg 91%
07:00 +17°C° 0.1 mm 0 mps 677 mmHg 90%
08:00 +21°C° 0.2 mm 1 mps 677 mmHg 84%
09:00 +22°C° 0.2 mm 1 mps 678 mmHg 78%
10:00 +23°C° 0.2 mm 2 mps 678 mmHg 73%
11:00 +21°C° 0.8 mm 2 mps 677 mmHg 79%
12:00 +20°C° 0.8 mm 2 mps 677 mmHg 86%
13:00 +19°C° 0.8 mm 3 mps 677 mmHg 93%
14:00 +17°C° 1 mm 2 mps 676 mmHg 95%
15:00 +15°C° 1 mm 2 mps 676 mmHg 96%
16:00 +14°C° 1 mm 2 mps 676 mmHg 98%
17:00 +13°C° 1.2 mm 2 mps 676 mmHg 97%
18:00 +12°C° 1.2 mm 2 mps 676 mmHg 97%
19:00 +12°C° 1.2 mm 1 mps 677 mmHg 96%
20:00 +12°C° 0.3 mm 1 mps 677 mmHg 95%
21:00 +11°C° 0.3 mm 1 mps 678 mmHg 95%
22:00 +11°C° 0.3 mm 1 mps 678 mmHg 95%
23:00 +10°C° 0 mm 1 mps 678 mmHg 95%

Tomorrow, 7 July, Tuesday

Time Temperature Precipitation Wind Pressure Humidity
00:00 +10°C° 0 mm 1 mps 678 mmHg 95%
01:00 +9°C° 0 mm 1 mps 678 mmHg 95%
02:00 +8°C° 0 mm 1 mps 678 mmHg 95%
03:00 +8°C° 0 mm 1 mps 678 mmHg 95%
04:00 +7°C° 0 mm 1 mps 678 mmHg 95%
05:00 +8°C° 0 mm 1 mps 679 mmHg 93%
06:00 +9°C° 0 mm 0 mps 679 mmHg 90%
07:00 +10°C° 0 mm 0 mps 680 mmHg 87%
08:00 +13°C° 0 mm 1 mps 680 mmHg 74%
09:00 +15°C° 0 mm 1 mps 680 mmHg 60%
10:00 +18°C° 0 mm 1 mps 680 mmHg 47%
11:00 +19°C° 0 mm 1 mps 680 mmHg 44%
12:00 +19°C° 0 mm 2 mps 680 mmHg 41%
13:00 +21°C° 0 mm 2 mps 680 mmHg 38%
14:00 +20°C° 0 mm 2 mps 680 mmHg 39%
15:00 +20°C° 0 mm 2 mps 680 mmHg 41%
16:00 +20°C° 0 mm 2 mps 679 mmHg 42%
17:00 +19°C° 0 mm 2 mps 679 mmHg 53%
18:00 +17°C° 0 mm 2 mps 679 mmHg 64%
19:00 +16°C° 0 mm 1 mps 679 mmHg 74%
20:00 +14°C° 0 mm 1 mps 679 mmHg 80%
21:00 +12°C° 0 mm 1 mps 678 mmHg 86%
22:00 +10°C° 0 mm 1 mps 678 mmHg 91%
23:00 +10°C° 0 mm 1 mps 678 mmHg 91%

Day after tomorrow, 8 July, Wednesday

Time Temperature Precipitation Wind Pressure Humidity
00:00 +10°C° 0 mm 1 mps 678 mmHg 91%
01:00 +10°C° 0 mm 1 mps 678 mmHg 91%
02:00 +10°C° 0 mm 1 mps 678 mmHg 91%
03:00 +10°C° 0 mm 1 mps 678 mmHg 91%
04:00 +10°C° 0 mm 1 mps 678 mmHg 91%
05:00 +12°C° 0 mm 1 mps 678 mmHg 84%
06:00 +14°C° 0 mm 1 mps 679 mmHg 77%
07:00 +15°C° 0 mm 0 mps 679 mmHg 70%
08:00 +19°C° 0 mm 1 mps 679 mmHg 62%
09:00 +21°C° 0 mm 1 mps 680 mmHg 54%
10:00 +23°C° 0 mm 1 mps 680 mmHg 46%
11:00 +24°C° 0 mm 1 mps 680 mmHg 44%
12:00 +24°C° 0 mm 2 mps 680 mmHg 41%
13:00 +25°C° 0 mm 2 mps 680 mmHg 39%
14:00 +25°C° 0 mm 2 mps 680 mmHg 42%
15:00 +24°C° 0 mm 2 mps 680 mmHg 45%
16:00 +24°C° 0 mm 3 mps 680 mmHg 47%
17:00 +21°C° 0 mm 2 mps 680 mmHg 57%
18:00 +20°C° 0 mm 2 mps 680 mmHg 67%
19:00 +19°C° 0 mm 1 mps 680 mmHg 77%
20:00 +18°C° 0 mm 1 mps 680 mmHg 82%
21:00 +15°C° 0 mm 1 mps 680 mmHg 88%
22:00 +13°C° 0 mm 1 mps 680 mmHg 93%
23:00 +13°C° 0 mm 1 mps 680 mmHg 93%

9 July, Thursday

Time Temperature Precipitation Wind Pressure Humidity
00:00 +13°C° 0 mm 1 mps 680 mmHg 93%
01:00 +13°C° 0 mm 1 mps 680 mmHg 93%
02:00 +13°C° 0 mm 1 mps 680 mmHg 93%
03:00 +12°C° 0 mm 1 mps 680 mmHg 93%
04:00 +12°C° 0 mm 1 mps 679 mmHg 93%
05:00 +13°C° 0 mm 0 mps 680 mmHg 87%
06:00 +15°C° 0 mm 0 mps 680 mmHg 81%
07:00 +17°C° 0 mm 0 mps 681 mmHg 75%
08:00 +19°C° 0 mm 0 mps 681 mmHg 68%
09:00 +22°C° 0 mm 1 mps 681 mmHg 61%
10:00 +24°C° 0 mm 1 mps 682 mmHg 54%
11:00 +25°C° 0 mm 1 mps 682 mmHg 52%
12:00 +26°C° 0 mm 1 mps 681 mmHg 50%
13:00 +26°C° 0 mm 1 mps 681 mmHg 48%
14:00 +26°C° 0.2 mm 2 mps 681 mmHg 50%
15:00 +26°C° 0.2 mm 2 mps 681 mmHg 53%
16:00 +26°C° 0.2 mm 2 mps 681 mmHg 55%
17:00 +24°C° 0.2 mm 1 mps 680 mmHg 65%
18:00 +23°C° 0.2 mm 1 mps 680 mmHg 74%
19:00 +22°C° 0.2 mm 1 mps 680 mmHg 83%
20:00 +20°C° 0.1 mm 1 mps 680 mmHg 87%
21:00 +19°C° 0.1 mm 1 mps 679 mmHg 90%
22:00 +16°C° 0.1 mm 1 mps 679 mmHg 93%
23:00 +16°C° 0 mm 1 mps 679 mmHg 93%

10 July, Friday

Time Temperature Precipitation Wind Pressure Humidity
00:00 +16°C° 0 mm 1 mps 679 mmHg 93%
01:00 +16°C° 0 mm 1 mps 679 mmHg 93%
02:00 +15°C° 0.1 mm 1 mps 678 mmHg 93%
03:00 +15°C° 0.1 mm 1 mps 678 mmHg 93%
04:00 +15°C° 0.1 mm 1 mps 678 mmHg 92%
05:00 +16°C° 0.2 mm 1 mps 678 mmHg 89%
06:00 +19°C° 0.2 mm 1 mps 678 mmHg 86%
07:00 +20°C° 0.2 mm 1 mps 678 mmHg 83%
08:00 +22°C° 0.3 mm 1 mps 679 mmHg 76%
09:00 +24°C° 0.3 mm 1 mps 679 mmHg 69%
10:00 +26°C° 0.3 mm 1 mps 679 mmHg 62%
11:00 +27°C° 0.5 mm 1 mps 679 mmHg 56%
12:00 +28°C° 0.5 mm 1 mps 679 mmHg 50%
13:00 +29°C° 0.5 mm 1 mps 678 mmHg 44%
14:00 +27°C° 0.7 mm 1 mps 678 mmHg 52%
15:00 +25°C° 0.7 mm 1 mps 677 mmHg 59%
16:00 +24°C° 0.7 mm 2 mps 677 mmHg 67%
17:00 +21°C° 0.9 mm 2 mps 676 mmHg 75%
18:00 +19°C° 0.9 mm 2 mps 676 mmHg 83%
19:00 +17°C° 0.9 mm 2 mps 676 mmHg 91%
20:00 +17°C° 2.6 mm 2 mps 676 mmHg 93%
21:00 +16°C° 2.6 mm 2 mps 677 mmHg 95%
22:00 +15°C° 2.6 mm 1 mps 677 mmHg 97%
23:00 +15°C° 1.1 mm 1 mps 677 mmHg 97%

11 July, Saturday

Time Temperature Precipitation Wind Pressure Humidity
00:00 +15°C° 1.1 mm 1 mps 677 mmHg 97%
01:00 +14°C° 1.1 mm 0 mps 677 mmHg 98%
02:00 +15°C° 1.2 mm 1 mps 677 mmHg 98%
03:00 +14°C° 1.2 mm 1 mps 677 mmHg 98%
04:00 +14°C° 1.2 mm 1 mps 677 mmHg 99%
05:00 +14°C° 1.4 mm 1 mps 677 mmHg 98%
06:00 +14°C° 1.4 mm 1 mps 678 mmHg 98%
07:00 +13°C° 1.4 mm 1 mps 678 mmHg 98%
08:00 +13°C° 1.4 mm 1 mps 678 mmHg 98%
09:00 +13°C° 1.4 mm 1 mps 678 mmHg 98%
10:00 +12°C° 1.4 mm 1 mps 679 mmHg 98%
11:00 +12°C° 0.3 mm 1 mps 679 mmHg 98%
12:00 +12°C° 0.3 mm 1 mps 679 mmHg 98%
13:00 +12°C° 0.3 mm 1 mps 679 mmHg 97%
14:00 +12°C° 0.1 mm 1 mps 679 mmHg 96%
15:00 +12°C° 0.1 mm 1 mps 679 mmHg 95%
16:00 +11°C° 0.1 mm 0 mps 679 mmHg 94%
17:00 +11°C° 0 mm 0 mps 680 mmHg 94%
18:00 +11°C° 0 mm 0 mps 680 mmHg 93%
19:00 +11°C° 0 mm 0 mps 680 mmHg 92%
20:00 +10°C° 0 mm 0 mps 680 mmHg 93%
21:00 +9°C° 0 mm 0 mps 680 mmHg 93%
22:00 +8°C° 0 mm 0 mps 681 mmHg 94%
23:00 +8°C° 0 mm 1 mps 680 mmHg 94%
Show more